Temp
-7 -7 -7 -7 -7 -7 -7 -7 -7 -7 -7 -7 -7 -7 -7 -7 -7 -7 -7 -7 -7 -8 -8 -9 -9 -9 -9 -10 -10 -10 -10 -10 -10 -10 -10 -10 -10 -9 -9 -9 -9 -9 -9
-8 -8 -8 -8 -8 -8 -8 -7 -7 -7 -7 -7 -7 -7 -7 -7 -7 -7 -7 -7 -8 -8 -9 -9 -9 -9 -9 -10 -10 -10 -10 -10 -11 -10 -10 -10 -10 -10 -9 -9 -9 -9 -9
-9 -9 -9 -8 -8 -8 -8 -8 -8 -8 -8 -8 -7 -7 -8 -8 -8 -7 -7 -7 -8 -8 -9 -9 -9 -9 -10 -10 -10 -10 -10 -10 -11 -11 -10 -10 -10 -10 -10 -9 -9 -9 -9
-10 -9 -9 -9 -9 -8 -8 -8 -8 -8 -8 -8 -8 -8 -8 -8 -8 -7 -7 -8 -8 -9 -9 -9 -9 -10 -10 -10 -10 -10 -10 -10 -11 -11 -10 -10 -10 -10 -10 -10 -9 -9 -9
-10 -10 -10 -9 -9 -9 -9 -9 -9 -8 -8 -8 -8 -8 -8 -8 -8 -8 -8 -8 -8 -9 -9 -9 -9 -9 -10 -10 -10 -10 -10 -10 -10 -11 -10 -10 -10 -10 -10 -10 -9 -10 -10
-11 -10 -10 -10 -9 -9 -9 -9 -9 -9 -9 -9 -9 -9 -8 -8 -8 -8 -8 -9 -9 -9 -9 -9 -9 -9 -10 -10 -10 -10 -11 -11 -11 -11 -10 -10 -10 -10 -10 -10 -10 -10 -10
-11 -10 -10 -10 -10 -10 -10 -10 -9 -9 -9 -9 -9 -9 -9 -9 -9 -9 -9 -9 -9 -9 -9 -9 -9 -9 -10 -10 -11 -10 -11 -11 -11 -11 -11 -10 -10 -10 -10 -10 -10 -10 -10
-11 -11 -11 -11 -11 -10 -10 -10 -10 -10 -10 -9 -9 -9 -9 -9 -9 -9 -9 -9 -9 -9 -9 -9 -9 -10 -10 -10 -11 -11 -11 -11 -11 -11 -11 -11 -11 -10 -10 -10 -10 -10 -10
-11 -12 -11 -11 -11 -11 -11 -11 -10 -10 -10 -10 -10 -9 -9 -10 -9 -9 -9 -9 -9 -9 -9 -9 -9 -10 -10 -11 -11 -11 -11 -11 -11 -11 -11 -11 -11 -10 -10 -10 -10 -10 -10
-12 -12 -12 -12 -11 -11 -11 -10 -10 -10 -10 -10 -10 -10 -10 -10 -10 -9 -9 -9 -9 -9 -9 -9 -10 -10 -10 -11 -11 -11 -11 -11 -11 -12 -11 -11 -11 -10 -10 -10 -10 -10 -9
-11 -11 -12 -12 -11 -11 -11 -11 -11 -11 -11 -10 -10 -10 -10 -10 -10 -9 -9 -9 -9 -9 -9 -9 -10 -10 -11 -11 -11 -12 -12 -11 -11 -11 -11 -11 -11 -10 -10 -10 -10 -10 -10
-11 -11 -12 -11 -12 -12 -11 -11 -11 -11 -11 -11 -11 -11 -10 -10 -10 -10 -9 -9 -9 -9 -9 -9 -10 -10 -10 -11 -11 -12 -12 -11 -11 -11 -11 -11 -11 -11 -10 -10 -10 -10 -10
-11 -11 -11 -11 -11 -11 -11 -11 -11 -11 -11 -11 -11 -11 -10 -10 -10 -10 -9 -9 -9 -10 -9 -9 -10 -10 -10 -10 -11 -12 -11 -11 -11 -10 -11 -11 -11 -10 -9 -9 -9 -9 -9
-10 -11 -11 -11 -11 -11 -11 -11 -11 -11 -11 -11 -11 -11 -10 -10 -10 -10 -10 -10 -9 -10 -9 -10 -10 -10 -10 -10 -10 -11 -11 -11 -11 -11 -11 -11 -11 -9 -10 -9 -10 -10 -10
-11 -10 -11 -11 -11 -11 -11 -11 -11 -11 -11 -11 -11 -11 -10 -10 -10 -10 -10 -10 -10 -9 -9 -10 -9 -10 -10 -10 -10 -11 -11 -11 -10 -10 -11 -11 -10 -10 -10 -10 -10 -10 -10
-11 -11 -10 -10 -11 -11 -11 -11 -11 -11 -11 -11 -11 -11 -11 -10 -10 -10 -10 -10 -10 -10 -9 -10 -9 -9 -10 -10 -10 -11 -10 -11 -11 -11 -10 -10 -10 -11 -10 -11 -10 -10 -11
-10 -10 -11 -10 -10 -11 -11 -11 -11 -11 -11 -11 -11 -11 -11 -11 -11 -11 -10 -10 -10 -10 -9 -9 -10 -9 -10 -10 -10 -10 -10 -11 -11 -10 -9 -11 -11 -11 -11 -11 -11 -10 -10
-11 -11 -11 -11 -10 -10 -11 -11 -11 -12 -11 -12 -12 -11 -11 -11 -11 -11 -11 -11 -10 -10 -10 -10 -10 -10 -9 -10 -10 -10 -11 -11 -11 -10 -10 -10 -11 -11 -11 -11 -11 -11 -10
-12 -12 -11 -11 -11 -11 -11 -11 -12 -12 -12 -12 -12 -12 -12 -12 -11 -11 -11 -11 -11 -10 -10 -10 -10 -10 -10 -10 -10 -11 -11 -11 -11 -11 -11 -11 -11 -11 -11 -11 -11 -11 -11
-12 -12 -12 -12 -11 -11 -12 -11 -12 -12 -12 -12 -12 -12 -12 -12 -12 -12 -12 -11 -11 -11 -11 -10 -10 -10 -10 -11 -11 -11 -11 -11 -10 -11 -11 -11 -10 -11 -11 -10 -11 -11 -11
-14 -14 -13 -12 -12 -12 -11 -12 -12 -12 -12 -12 -12 -12 -13 -12 -12 -12 -12 -12 -11 -11 -11 -10 -10 -10 -12 -11 -11 -11 -11 -11 -11 -11 -11 -11 -10 -11 -11 -11 -11 -11 -11
-16 -16 -15 -14 -13 -13 -12 -12 -13 -12 -12 -14 -13 -13 -13 -13 -13 -12 -12 -12 -12 -12 -11 -11 -10 -10 -11 -12 -11 -11 -11 -11 -11 -11 -11 -11 -11 -11 -11 -11 -11 -11 -11
-19 -17 -18 -17 -16 -14 -14 -13 -13 -13 -13 -13 -13 -12 -13 -13 -13 -13 -13 -13 -12 -12 -12 -12 -11 -11 -11 -12 -12 -11 -11 -11 -11 -11 -11 -11 -11 -11 -11 -12 -12 -12 -11
-21 -20 -18 -18 -18 -17 -15 -14 -14 -14 -13 -14 -12 -12 -13 -13 -14 -14 -13 -13 -13 -12 -12 -13 -12 -11 -11 -11 -12 -12 -11 -11 -11 -11 -12 -12 -11 -11 -12 -12 -12 -12 -12
-22 -21 -21 -21 -19 -19 -17 -17 -16 -15 -14 -14 -14 -14 -13 -14 -14 -14 -14 -14 -13 -13 -13 -12 -12 -12 -12 -12 -12 -12 -12 -12 -12 -12 -12 -12 -12 -12 -12 -12 -12 -12 -12
-23 -22 -21 -21 -20 -20 -19 -18 -17 -16 -16 -15 -15 -14 -14 -14 -14 -14 -14 -14 -14 -13 -13 -13 -13 -12 -12 -12 -12 -12 -12 -12 -12 -12 -12 -12 -12 -12 -12 -12 -12 -12 -12
Height
5811 5812 5813 5815 5817 5819 5820 5821 5822 5822 5823 5823 5824 5825 5825 5827 5828 5829 5828 5829 5828 5828 5829 5829 5830 5830 5832 5833 5834 5835 5838 5839 5841 5842 5844 5846 5847 5848 5850 5852 5853 5855 5856
5808 5810 5810 5812 5814 5816 5817 5818 5819 5820 5821 5821 5822 5822 5823 5824 5825 5827 5826 5826 5826 5826 5827 5827 5828 5828 5830 5831 5832 5834 5836 5837 5839 5841 5842 5843 5845 5847 5848 5850 5851 5854 5855
5805 5807 5808 5810 5812 5813 5814 5815 5816 5817 5818 5818 5819 5820 5821 5822 5822 5823 5823 5823 5823 5823 5824 5825 5826 5827 5828 5830 5831 5832 5833 5836 5837 5840 5840 5842 5842 5844 5846 5848 5850 5852 5855
5801 5803 5805 5806 5808 5810 5811 5812 5812 5813 5814 5815 5816 5817 5818 5819 5819 5820 5819 5819 5819 5820 5821 5823 5823 5824 5825 5826 5828 5829 5831 5833 5835 5838 5839 5840 5840 5842 5844 5846 5848 5851 5853
5796 5798 5801 5803 5805 5806 5807 5808 5808 5809 5810 5812 5813 5814 5815 5816 5816 5816 5816 5816 5815 5816 5818 5820 5821 5821 5823 5824 5825 5826 5828 5830 5833 5835 5836 5837 5838 5839 5841 5844 5847 5849 5851
5792 5795 5797 5799 5800 5801 5803 5803 5804 5805 5806 5808 5809 5810 5812 5812 5812 5813 5813 5813 5812 5814 5816 5818 5819 5819 5820 5820 5822 5823 5826 5828 5830 5831 5833 5836 5838 5839 5841 5843 5845 5848 5850
5788 5791 5792 5794 5795 5796 5797 5798 5799 5800 5802 5803 5804 5805 5807 5808 5808 5809 5810 5810 5810 5812 5813 5815 5815 5816 5816 5816 5818 5819 5822 5825 5827 5829 5831 5834 5836 5839 5841 5843 5845 5845 5846
5786 5787 5787 5789 5789 5791 5792 5793 5794 5795 5796 5798 5799 5801 5803 5804 5805 5806 5807 5807 5808 5809 5810 5811 5810 5811 5811 5812 5814 5816 5818 5820 5822 5826 5830 5832 5834 5837 5839 5841 5843 5844 5845
5780 5780 5781 5781 5783 5785 5786 5788 5788 5789 5791 5792 5794 5797 5799 5800 5801 5802 5804 5804 5804 5805 5807 5807 5806 5806 5807 5808 5809 5811 5813 5815 5819 5822 5825 5828 5832 5834 5837 5839 5841 5842 5843
5769 5770 5772 5773 5774 5777 5779 5781 5783 5784 5785 5787 5789 5791 5793 5794 5796 5797 5799 5800 5800 5801 5802 5803 5802 5802 5803 5803 5803 5806 5808 5810 5814 5817 5821 5825 5829 5832 5835 5836 5837 5839 5840
5765 5764 5763 5765 5767 5770 5773 5776 5777 5778 5779 5781 5783 5786 5788 5789 5791 5793 5795 5795 5796 5797 5797 5798 5798 5798 5799 5797 5797 5800 5803 5806 5809 5812 5818 5822 5825 5828 5830 5832 5833 5835 5836
5758 5758 5759 5760 5760 5763 5765 5768 5769 5771 5773 5775 5778 5781 5782 5784 5786 5788 5790 5791 5791 5793 5793 5793 5794 5794 5794 5793 5792 5795 5797 5800 5804 5809 5814 5817 5820 5823 5825 5827 5829 5832 5834
5750 5752 5753 5754 5756 5758 5760 5761 5763 5764 5767 5769 5771 5773 5775 5778 5779 5782 5783 5786 5786 5787 5788 5788 5789 5791 5790 5790 5789 5792 5794 5796 5800 5806 5810 5813 5819 5816 5814 5819 5825 5828 5828
5739 5741 5744 5746 5748 5750 5752 5755 5756 5757 5760 5762 5764 5767 5769 5771 5772 5775 5777 5779 5781 5783 5783 5783 5784 5786 5787 5787 5787 5789 5792 5793 5797 5801 5806 5810 5815 5794 5814 5814 5821 5825 5828
5729 5731 5733 5735 5737 5740 5742 5746 5749 5750 5751 5753 5756 5759 5762 5764 5766 5768 5770 5772 5775 5777 5778 5779 5778 5781 5782 5782 5783 5785 5789 5791 5795 5797 5802 5806 5807 5813 5816 5817 5820 5823 5825
5713 5718 5722 5724 5727 5730 5733 5736 5739 5741 5743 5746 5748 5751 5754 5756 5758 5761 5763 5766 5768 5771 5772 5774 5774 5776 5777 5778 5779 5780 5784 5788 5791 5792 5797 5802 5805 5810 5814 5817 5819 5822 5824
5698 5700 5706 5713 5716 5719 5721 5725 5728 5732 5734 5737 5740 5742 5746 5748 5750 5753 5755 5759 5762 5764 5767 5768 5769 5770 5772 5772 5773 5776 5778 5782 5788 5789 5790 5798 5801 5806 5810 5814 5816 5819 5822
5682 5684 5689 5695 5702 5707 5710 5712 5717 5721 5724 5728 5731 5733 5737 5740 5743 5745 5747 5751 5755 5757 5761 5762 5763 5764 5766 5766 5770 5772 5775 5778 5785 5791 5790 5792 5795 5803 5806 5811 5814 5815 5818
5665 5668 5670 5677 5685 5692 5698 5700 5704 5708 5712 5716 5720 5724 5728 5731 5734 5737 5739 5743 5747 5751 5754 5757 5758 5758 5759 5759 5764 5769 5773 5777 5782 5787 5789 5791 5794 5799 5803 5808 5811 5814 5817
5640 5648 5653 5658 5664 5673 5681 5687 5690 5695 5700 5703 5709 5713 5718 5722 5725 5728 5731 5735 5739 5743 5748 5750 5752 5753 5754 5756 5760 5764 5768 5773 5776 5781 5787 5789 5792 5795 5799 5803 5807 5810 5812
5613 5621 5630 5639 5646 5652 5660 5668 5677 5680 5687 5692 5696 5702 5708 5712 5716 5719 5723 5727 5730 5735 5740 5744 5747 5750 5752 5753 5755 5756 5762 5766 5772 5777 5781 5784 5789 5791 5795 5798 5801 5804 5808
5586 5595 5604 5613 5623 5633 5639 5648 5658 5666 5673 5679 5683 5690 5696 5701 5706 5710 5714 5718 5722 5726 5731 5736 5739 5743 5745 5748 5749 5752 5757 5761 5765 5771 5775 5779 5782 5787 5790 5794 5797 5800 5802
5561 5571 5580 5589 5598 5608 5620 5628 5639 5648 5655 5663 5669 5673 5683 5690 5696 5701 5705 5709 5714 5718 5722 5727 5732 5736 5740 5743 5744 5748 5750 5755 5760 5764 5768 5773 5776 5780 5784 5787 5790 5792 5796
5538 5547 5559 5568 5577 5586 5597 5608 5619 5628 5637 5647 5654 5659 5669 5678 5682 5688 5695 5700 5704 5710 5715 5720 5723 5727 5732 5736 5739 5743 5746 5750 5753 5758 5763 5766 5769 5773 5777 5780 5783 5785 5789
5516 5524 5535 5546 5557 5569 5579 5588 5599 5608 5621 5631 5639 5647 5653 5662 5671 5675 5683 5690 5695 5701 5705 5710 5715 5720 5724 5728 5732 5735 5739 5744 5747 5751 5755 5760 5763 5766 5769 5773 5776 5779 5782
5498 5505 5515 5526 5537 5548 5560 5570 5579 5589 5602 5615 5624 5630 5637 5647 5655 5663 5670 5677 5684 5690 5696 5702 5706 5712 5716 5720 5725 5730 5733 5737 5740 5745 5747 5750 5754 5758 5761 5764 5768 5771 5775
Wind_Speed
27 26 25 24 23 20 19 19 19 18 16 15 16 16 16 13 13 14 13 14 16 17 17 17 16 16 15 14 14 14 16 18 20 19 19 17 16 16 16 16 15 15 14
27 25 25 24 21 21 20 20 20 19 17 16 16 16 16 15 15 15 14 16 18 19 19 17 16 17 16 15 16 15 16 18 18 19 20 19 17 19 19 18 17 16 15
24 24 24 21 20 21 21 22 21 19 18 17 17 17 16 16 16 17 16 17 19 20 20 18 17 18 17 17 17 17 17 18 19 19 20 20 21 21 21 19 19 19 18
24 25 23 21 22 22 23 23 22 21 20 19 18 18 17 17 18 18 16 17 18 18 19 18 18 18 19 18 19 19 19 19 21 21 20 21 21 25 24 21 20 20 19
26 24 23 23 23 22 23 25 24 23 22 21 20 19 18 18 18 17 15 16 16 17 16 18 18 19 19 19 19 21 20 20 22 23 22 21 22 19 19 21 20 20 20
26 24 20 22 24 25 26 26 26 25 24 24 22 21 20 19 18 16 16 14 14 14 14 17 20 21 19 20 20 21 21 21 24 24 25 22 22 21 21 21 21 20 20
24 25 24 24 26 27 27 27 27 27 26 26 24 23 22 22 19 18 17 15 14 14 13 17 20 23 21 23 23 21 21 23 26 26 25 23 22 21 22 21 20 21 22
23 25 26 27 27 28 27 28 29 29 27 27 26 25 23 24 21 20 19 18 16 16 18 19 20 23 23 23 24 24 24 27 28 28 25 24 23 23 24 23 22 22 21
25 28 29 31 30 29 29 30 30 30 30 29 28 26 25 26 24 21 21 20 18 18 20 22 22 23 24 23 23 26 26 29 30 29 29 27 25 26 25 23 23 22 22
41 39 39 35 34 33 33 32 33 32 31 32 30 28 28 28 26 23 22 21 22 21 21 22 21 21 23 22 24 29 26 29 26 32 28 29 27 26 25 25 25 26 27
35 34 40 43 45 39 36 36 34 34 34 34 32 30 30 30 28 25 24 22 21 21 21 22 19 19 21 20 20 29 26 28 27 25 29 30 27 27 28 29 28 27 27
41 41 44 37 40 38 39 36 39 39 37 36 34 33 32 32 30 28 27 25 23 21 21 23 19 20 20 20 19 25 27 28 27 27 32 31 29 29 31 29 29 31 31
41 42 43 44 39 38 38 35 39 40 37 36 36 36 34 34 31 31 29 28 25 23 22 22 19 20 19 17 19 23 26 25 20 29 34 32 26 36 36 34 29 30 26
45 46 44 44 44 43 42 40 38 38 36 35 37 38 36 36 33 33 32 30 29 26 24 22 24 21 21 19 21 23 24 26 26 29 32 31 26 29 48 34 35 35 30
49 48 49 48 47 44 41 42 44 43 43 41 38 38 38 37 36 35 34 32 31 28 27 24 26 24 23 21 22 26 26 29 27 32 31 32 29 37 23 29 24 30 23
58 53 50 51 50 49 47 44 41 43 47 45 42 41 40 39 39 36 36 34 32 31 30 27 27 26 26 25 23 29 30 31 31 33 30 31 32 30 22 21 20 19 16
63 62 58 53 52 51 49 48 47 44 44 45 44 43 43 42 40 39 37 36 35 34 31 30 28 28 28 28 27 31 28 35 33 25 32 36 29 24 24 21 22 17 16
69 67 65 62 57 54 51 50 51 48 47 44 44 42 41 41 40 40 38 38 37 35 31 32 29 29 27 30 31 30 26 37 39 36 24 36 35 26 28 25 20 17 22
76 74 72 68 65 60 56 53 52 51 49 48 45 44 40 41 41 40 40 39 37 36 32 31 30 26 27 28 31 33 34 35 40 42 42 42 35 34 31 29 28 24 25
85 83 80 75 71 69 63 58 55 52 51 50 47 45 42 41 42 41 40 39 38 36 32 30 29 26 25 31 29 38 37 37 42 43 43 46 38 34 33 33 35 30 27
92 89 87 84 79 75 73 65 61 56 52 54 52 48 44 43 43 43 42 40 39 38 34 31 29 25 26 34 36 35 40 43 44 43 47 43 48 38 40 37 36 36 32
96 89 90 87 86 81 79 76 67 62 58 58 54 53 48 45 45 43 44 42 39 38 36 32 30 27 30 27 32 39 47 48 43 49 50 47 44 49 45 40 48 43 37
79 90 87 82 87 88 79 78 73 68 65 62 60 57 52 47 46 45 44 41 40 40 37 34 33 33 32 31 22 37 39 42 42 44 42 44 42 44 42 43 41 40 39
69 69 79 81 75 81 84 82 76 74 70 64 65 62 55 52 49 48 46 43 41 41 38 37 34 35 33 35 32 34 41 37 37 38 35 36 36 41 40 35 37 40 38
66 70 71 69 71 67 79 72 78 80 72 66 54 61 57 53 54 51 48 46 43 42 41 39 40 36 35 36 35 39 43 38 37 42 35 35 33 36 37 37 40 41 37
61 65 72 69 67 70 65 77 79 82 77 71 52 53 65 61 56 56 52 50 47 44 44 41 41 39 41 38 38 36 30 34 32 34 38 40 43 38 37 37 42 43 46
Wind_Direction
239 238 239 241 244 244 242 241 243 246 253 259 267 278 283 275 266 270 277 284 286 282 274 272 274 277 277 272 265 250 232 225 228 227 226 225 217 216 212 207 204 204 200
244 243 242 240 241 242 240 242 244 246 251 257 263 274 276 273 271 266 274 279 280 275 267 264 265 269 272 268 260 250 239 230 230 228 226 227 219 217 216 209 206 211 205
245 249 251 248 242 241 240 239 241 245 251 256 263 269 269 272 269 270 276 279 277 272 261 258 260 265 265 264 259 254 247 235 234 231 230 229 222 218 216 212 206 210 212
243 241 245 244 243 241 242 242 243 243 247 253 260 263 266 268 267 271 275 277 272 265 256 256 258 255 260 259 256 255 250 241 232 233 230 228 224 222 212 211 209 212 215
247 242 242 245 246 243 241 243 243 244 246 250 255 260 259 261 268 271 273 271 268 260 252 252 252 254 261 257 253 250 248 245 236 232 229 231 229 242 208 215 216 216 215
246 251 246 243 244 242 243 243 243 244 246 248 250 255 254 257 264 265 267 264 266 253 249 250 251 258 262 255 249 248 243 241 239 233 228 229 230 226 228 222 221 222 219
245 251 248 246 245 243 242 244 244 243 245 249 252 253 252 252 259 260 261 257 255 250 252 259 261 263 263 256 249 243 234 238 238 234 229 227 230 228 230 228 224 223 224
251 254 253 251 249 248 248 245 243 242 244 248 251 253 253 253 256 259 257 253 247 249 251 257 265 260 263 257 249 242 235 232 234 238 226 225 230 228 230 226 222 224 226
255 257 254 254 250 249 248 248 246 243 243 246 249 252 254 253 253 257 259 254 249 250 253 256 262 261 260 264 246 241 235 234 236 227 228 221 224 228 228 226 223 223 223
240 238 244 250 247 244 245 246 247 246 247 249 250 250 251 252 253 252 257 256 254 251 255 257 263 265 263 264 247 233 237 235 243 239 219 220 221 226 227 225 222 222 224
258 256 247 246 243 248 248 245 246 248 249 250 252 252 252 253 251 251 253 255 257 256 254 260 267 265 267 256 246 237 234 229 227 235 222 217 223 224 226 222 221 223 226
255 253 257 267 247 246 249 246 243 248 250 252 252 252 252 254 254 252 250 254 255 257 253 258 264 261 258 258 244 234 225 225 224 221 214 215 220 224 227 222 221 228 228
261 260 259 258 258 253 252 249 249 251 252 252 253 249 249 252 251 251 249 251 252 256 254 256 259 257 248 247 237 227 217 218 219 218 217 218 218 235 226 210 229 230 215
262 258 256 257 258 257 253 251 248 251 252 250 250 249 249 250 250 250 247 248 250 252 254 257 256 260 247 246 238 226 217 200 214 217 216 218 213 181 207 215 214 216 211
258 257 255 253 256 257 255 253 252 249 249 250 249 251 250 249 251 250 249 246 249 250 253 254 257 254 248 239 241 231 207 207 205 225 218 220 220 216 210 198 200 193 204
261 257 255 256 253 253 255 253 250 251 249 250 248 248 249 248 248 249 248 247 247 247 251 254 255 255 246 239 247 231 217 205 206 214 218 217 215 225 220 226 228 235 233
251 256 257 253 255 252 250 251 252 248 248 251 249 246 247 247 246 247 247 247 245 245 247 253 255 255 246 241 234 233 230 216 193 206 226 211 204 213 222 224 233 236 241
241 244 250 253 250 251 249 247 249 248 248 246 249 248 245 247 249 248 245 245 244 245 244 248 253 258 249 244 220 224 216 193 189 195 197 182 165 201 227 232 224 242 251
243 240 240 243 248 246 245 246 245 245 244 246 243 246 244 245 245 244 243 242 242 243 242 244 252 257 249 224 215 216 211 198 197 202 209 218 229 237 233 228 236 237 245
241 240 239 237 239 243 243 242 243 243 242 243 244 242 243 243 244 243 242 243 241 242 241 238 247 252 228 215 220 221 218 211 206 205 213 219 223 230 224 227 232 243 245
241 240 239 237 234 236 240 240 239 239 239 243 242 241 238 242 244 243 242 242 242 239 238 234 236 236 222 231 227 216 212 206 210 211 212 221 219 222 232 241 243 241 242
240 240 239 237 236 234 234 237 237 235 236 234 241 240 236 237 242 243 241 238 239 239 236 231 232 231 225 221 223 212 207 209 210 212 217 222 225 231 232 234 233 238 242
252 244 239 238 236 233 232 233 234 234 234 235 236 238 236 233 239 242 240 235 233 233 232 226 223 223 223 225 223 222 214 215 220 222 225 230 234 232 238 236 239 239 238
242 241 242 240 236 236 232 230 229 233 230 231 237 234 234 232 231 236 239 235 229 229 228 222 225 220 223 224 225 231 225 228 227 228 228 227 233 239 239 240 237 239 243
230 230 230 231 234 234 233 232 228 229 231 226 207 230 234 231 231 229 233 235 228 225 227 226 223 220 221 220 221 234 224 220 223 223 223 226 232 240 242 240 244 241 240
225 226 229 228 229 229 231 228 227 226 227 227 225 236 235 229 227 229 229 231 230 224 224 225 228 218 219 218 218 222 229 223 225 230 227 227 245 246 237 243 246 248 248